Time,TemperatureF,DewpointF,PressureIn,WindDirection,WindDirectionDegrees,WindSpeedMPH,WindSpeedGustMPH,Humidity,HourlyPrecipIn,Conditions,Clouds,dailyrainin,SoftwareType,DateUTC
2013-02-19 00:02:00,31.0,29.0,29.42,ENE,75,11.0,20.0,93,-99.99,,,-99.99,,2013-02-19 05:02:00,
2013-02-19 00:13:00,31.0,29.0,29.42,ENE,75,11.0,20.0,93,-99.99,,,-99.99,,2013-02-19 05:13:00,
2013-02-19 00:22:00,31.0,30.0,29.41,NE,50,11.0,21.0,94,-99.99,,,-99.99,,2013-02-19 05:22:00,
2013-02-19 00:32:00,31.0,30.0,29.40,ENE,65,11.0,19.0,94,-99.99,,,-99.99,,2013-02-19 05:32:00,
2013-02-19 00:43:00,31.0,30.0,29.40,ENE,65,11.0,19.0,94,-99.99,,,-99.99,,2013-02-19 05:43:00,
2013-02-19 00:52:00,31.0,30.0,29.38,ENE,70,9.0,19.0,95,-99.99,,,-99.99,,2013-02-19 05:52:00,
2013-02-19 01:03:00,31.0,30.0,29.38,ENE,65,10.0,19.0,96,-99.99,,,-99.99,,2013-02-19 06:03:00,
2013-02-19 01:12:00,31.0,30.0,29.38,ENE,65,10.0,19.0,96,-99.99,,,-99.99,,2013-02-19 06:12:00,
2013-02-19 01:22:00,32.0,31.0,29.36,ENE,60,10.0,16.0,96,-99.99,,,-99.99,,2013-02-19 06:22:00,
2013-02-19 01:32:00,32.0,31.0,29.35,NE,45,9.0,19.0,97,-99.99,,,-99.99,,2013-02-19 06:32:00,
2013-02-19 01:42:00,32.0,31.0,-100.00,NE,45,9.0,19.0,97,-99.99,,,-99.99,,2013-02-19 06:42:00,
2013-02-19 01:52:00,32.0,31.0,29.33,NE,55,9.0,16.0,97,-99.99,,,-99.99,,2013-02-19 06:52:00,
2013-02-19 02:02:00,32.0,31.0,29.32,NE,55,9.0,17.0,97,-99.99,,,-99.99,,2013-02-19 07:02:00,
2013-02-19 02:12:00,32.0,31.0,29.32,NE,55,9.0,17.0,97,-99.99,,,-99.99,,2013-02-19 07:12:00,
2013-02-19 02:22:00,32.0,32.0,29.31,NE,45,10.0,17.0,98,-99.99,,,-99.99,,2013-02-19 07:22:00,
2013-02-19 02:32:00,32.0,32.0,29.29,NE,55,10.0,19.0,98,-99.99,,,-99.99,,2013-02-19 07:32:00,
2013-02-19 02:42:00,32.0,32.0,29.29,NE,55,10.0,19.0,98,-99.99,,,-99.99,,2013-02-19 07:42:00,
2013-02-19 02:52:00,32.0,32.0,29.28,NNE,20,10.0,17.0,98,-99.99,,,-99.99,,2013-02-19 07:52:00,
2013-02-19 03:02:00,32.0,32.0,29.27,NE,40,10.0,21.0,98,-99.99,,,-99.99,,2013-02-19 08:02:00,
2013-02-19 03:11:00,32.0,32.0,-100.00,NE,40,10.0,21.0,98,-99.99,,,-99.99,,2013-02-19 08:11:00,
2013-02-19 03:22:00,32.0,32.0,29.26,NE,45,10.0,18.0,98,-99.99,,,-99.99,,2013-02-19 08:22:00,
2013-02-19 03:32:00,33.0,33.0,29.25,ENE,60,11.0,19.0,99,-99.99,,,-99.99,,2013-02-19 08:32:00,
2013-02-19 03:42:00,33.0,33.0,29.25,ENE,60,11.0,19.0,99,-99.99,,,-99.99,,2013-02-19 08:42:00,
2013-02-19 03:52:00,33.0,32.0,29.23,NE,55,9.0,24.0,99,-99.99,,,-99.99,,2013-02-19 08:52:00,
2013-02-19 04:02:00,33.0,33.0,29.22,NE,40,9.0,17.0,99,-99.99,,,-99.99,,2013-02-19 09:02:00,
2013-02-19 04:11:00,33.0,33.0,-100.00,NE,40,9.0,17.0,99,-99.99,,,-99.99,,2013-02-19 09:11:00,
2013-02-19 04:22:00,33.0,33.0,29.20,NNE,30,9.0,16.0,99,-99.99,,,-99.99,,2013-02-19 09:22:00,
2013-02-19 04:32:00,33.0,33.0,29.18,NE,55,9.0,20.0,99,-99.99,,,-99.99,,2013-02-19 09:32:00,
2013-02-19 04:42:00,33.0,33.0,-100.00,NE,55,9.0,20.0,99,-99.99,,,-99.99,,2013-02-19 09:42:00,
2013-02-19 04:52:00,33.0,33.0,29.17,NE,35,11.0,18.0,99,-99.99,,,-99.99,,2013-02-19 09:52:00,
2013-02-19 05:02:00,33.0,33.0,29.16,NE,40,9.0,21.0,99,-99.99,,,-99.99,,2013-02-19 10:02:00,
2013-02-19 05:11:00,33.0,33.0,-100.00,NE,40,9.0,21.0,99,-99.99,,,-99.99,,2013-02-19 10:11:00,
2013-02-19 05:22:00,33.0,33.0,29.14,NE,45,11.0,19.0,99,-99.99,,,-99.99,,2013-02-19 10:22:00,
2013-02-19 05:32:00,33.0,33.0,29.14,NE,55,11.0,23.0,99,-99.99,,,-99.99,,2013-02-19 10:32:00,
2013-02-19 05:42:00,33.0,33.0,-100.00,NE,55,11.0,23.0,99,-99.99,,,-99.99,,2013-02-19 10:42:00,
2013-02-19 05:52:00,33.0,33.0,29.12,NE,45,9.0,19.0,99,-99.99,,,-99.99,,2013-02-19 10:52:00,
2013-02-19 06:01:00,33.0,33.0,29.12,NE,55,11.0,18.0,99,-99.99,,,-99.99,,2013-02-19 11:01:00,
2013-02-19 06:11:00,33.0,33.0,29.12,NE,55,11.0,18.0,99,-99.99,,,-99.99,,2013-02-19 11:11:00,
2013-02-19 06:22:00,33.0,33.0,29.11,NE,55,9.0,17.0,99,-99.99,,,-99.99,,2013-02-19 11:22:00,
2013-02-19 06:32:00,34.0,33.0,29.10,NE,55,11.0,16.0,99,-99.99,,,-99.99,,2013-02-19 11:32:00,
2013-02-19 06:42:00,34.0,33.0,-100.00,NE,55,11.0,16.0,99,-99.99,,,-99.99,,2013-02-19 11:42:00,
2013-02-19 06:52:00,34.0,33.0,29.08,NE,55,11.0,19.0,99,-99.99,,,-99.99,,2013-02-19 11:52:00,
2013-02-19 07:02:00,34.0,34.0,29.08,NNE,25,7.0,16.0,99,-99.99,,,-99.99,,2013-02-19 12:02:00,
2013-02-19 07:12:00,34.0,34.0,-100.00,NNE,25,7.0,16.0,99,-99.99,,,-99.99,,2013-02-19 12:12:00,
2013-02-19 07:22:00,34.0,34.0,29.08,NNE,25,5.0,17.0,99,-99.99,,,-99.99,,2013-02-19 12:22:00,
2013-02-19 07:32:00,34.0,34.0,29.08,ENE,65,6.0,11.0,99,-99.99,,,-99.99,,2013-02-19 12:32:00,
2013-02-19 07:42:00,34.0,34.0,-100.00,ENE,65,6.0,11.0,99,-99.99,,,-99.99,,2013-02-19 12:42:00,
2013-02-19 07:52:00,34.0,33.0,29.08,SSE,150,13.0,18.0,99,-99.99,,,-99.99,,2013-02-19 12:52:00,
2013-02-19 08:02:00,33.0,33.0,29.08,SSE,150,10.0,16.0,99,-99.99,,,-99.99,,2013-02-19 13:02:00,
2013-02-19 08:11:00,33.0,33.0,29.08,SSE,150,10.0,16.0,99,-99.99,,,-99.99,,2013-02-19 13:11:00,
2013-02-19 08:22:00,32.0,32.0,29.07,SSE,150,9.0,14.0,99,-99.99,,,-99.99,,2013-02-19 13:22:00,
2013-02-19 08:32:00,33.0,32.0,29.07,WNW,290,3.0,6.0,99,-99.99,,,-99.99,,2013-02-19 13:32:00,
2013-02-19 08:42:00,33.0,32.0,-100.00,WNW,290,3.0,6.0,99,-99.99,,,-99.99,,2013-02-19 13:42:00,
2013-02-19 08:52:00,33.0,33.0,29.08,West,280,10.0,16.0,99,-99.99,,,-99.99,,2013-02-19 13:52:00,
2013-02-19 09:02:00,33.0,33.0,29.08,WNW,300,10.0,16.0,99,-99.99,,,-99.99,,2013-02-19 14:02:00,
2013-02-19 09:12:00,33.0,33.0,29.08,WNW,300,10.0,16.0,99,-99.99,,,-99.99,,2013-02-19 14:12:00,
2013-02-19 09:20:00,32.0,32.0,29.12,ENE,70,1.0,7.0,99,-99.99,,,-99.99,,2013-02-19 14:20:00,
2013-02-19 09:22:00,33.0,33.0,29.10,West,270,1.0,15.0,99,-99.99,,,-99.99,,2013-02-19 14:22:00,
2013-02-19 09:33:00,32.0,32.0,29.10,East,90,2.0,6.0,99,-99.99,,,-99.99,,2013-02-19 14:33:00,
2013-02-19 09:42:00,32.0,32.0,29.10,East,90,2.0,6.0,99,-99.99,,,-99.99,,2013-02-19 14:42:00,
2013-02-19 09:52:00,32.0,32.0,29.11,ENE,60,1.0,6.0,99,-99.99,,,-99.99,,2013-02-19 14:52:00,
2013-02-19 10:02:00,32.0,32.0,29.12,ENE,70,1.0,7.0,99,-99.99,,,-99.99,,2013-02-19 15:02:00,
2013-02-19 10:11:00,32.0,32.0,29.12,ENE,70,1.0,7.0,99,-99.99,,,-99.99,,2013-02-19 15:11:00,
2013-02-19 18:32:00,17.0,15.0,29.53,WNW,290,14.0,26.0,93,-99.99,,,-99.99,,2013-02-19 23:32:00,
2013-02-19 18:42:00,16.0,15.0,29.55,WNW,295,16.0,28.0,93,-99.99,,,-99.99,,2013-02-19 23:42:00,
2013-02-19 18:52:00,16.0,15.0,29.55,WNW,295,16.0,28.0,93,-99.99,,,-99.99,,2013-02-19 23:52:00,
2013-02-19 19:02:00,16.0,14.0,29.56,WNW,285,13.0,25.0,93,-99.99,,,-99.99,,2013-02-20 00:02:00,
2013-02-19 19:11:00,16.0,14.0,29.56,WNW,285,13.0,25.0,93,-99.99,,,-99.99,,2013-02-20 00:11:00,
2013-02-19 19:22:00,15.0,14.0,29.57,WNW,300,11.0,19.0,93,-99.99,,,-99.99,,2013-02-20 00:22:00,
2013-02-19 19:32:00,15.0,14.0,29.59,WNW,285,9.0,21.0,93,-99.99,,,-99.99,,2013-02-20 00:32:00,
2013-02-19 19:42:00,15.0,14.0,29.59,WNW,285,9.0,21.0,93,-99.99,,,-99.99,,2013-02-20 00:42:00,
2013-02-19 19:52:00,15.0,14.0,29.59,WNW,295,8.0,20.0,93,-99.99,,,-99.99,,2013-02-20 00:52:00,
2013-02-19 20:02:00,15.0,13.0,29.61,WNW,300,11.0,23.0,93,-99.99,,,-99.99,,2013-02-20 01:02:00,
2013-02-19 20:11:00,15.0,13.0,29.61,WNW,300,11.0,23.0,93,-99.99,,,-99.99,,2013-02-20 01:11:00,
2013-02-19 20:22:00,15.0,13.0,29.62,WNW,300,14.0,21.0,92,-99.99,,,-99.99,,2013-02-20 01:22:00,
2013-02-19 20:32:00,15.0,12.0,29.63,WNW,290,9.0,25.0,91,-99.99,,,-99.99,,2013-02-20 01:32:00,
2013-02-19 20:42:00,15.0,12.0,29.63,WNW,290,9.0,25.0,91,-99.99,,,-99.99,,2013-02-20 01:42:00,
2013-02-19 20:52:00,14.0,12.0,29.64,West,275,11.0,21.0,90,-99.99,,,-99.99,,2013-02-20 01:52:00,
2013-02-19 21:02:00,14.0,11.0,29.65,WNW,285,11.0,19.0,89,-99.99,,,-99.99,,2013-02-20 02:02:00,
2013-02-19 21:11:00,14.0,11.0,29.65,WNW,285,11.0,19.0,89,-99.99,,,-99.99,,2013-02-20 02:11:00,
2013-02-19 21:22:00,14.0,11.0,29.66,West,280,11.0,18.0,88,-99.99,,,-99.99,,2013-02-20 02:22:00,
2013-02-19 21:32:00,13.0,11.0,29.67,West,280,9.0,17.0,89,-99.99,,,-99.99,,2013-02-20 02:32:00,
2013-02-19 21:42:00,13.0,10.0,29.68,WNW,290,8.0,17.0,88,-99.99,,,-99.99,,2013-02-20 02:42:00,
2013-02-19 21:52:00,13.0,10.0,29.68,WNW,290,8.0,17.0,88,-99.99,,,-99.99,,2013-02-20 02:52:00,
2013-02-19 22:02:00,13.0,9.0,29.68,West,280,15.0,26.0,83,-99.99,,,-99.99,,2013-02-20 03:02:00,
2013-02-19 22:12:00,13.0,9.0,29.68,West,280,15.0,26.0,83,-99.99,,,-99.99,,2013-02-20 03:12:00,
2013-02-19 22:22:00,13.0,8.0,29.69,WNW,285,9.0,24.0,81,-99.99,,,-99.99,,2013-02-20 03:22:00,
2013-02-19 22:32:00,13.0,8.0,29.69,WNW,295,11.0,26.0,82,-99.99,,,-99.99,,2013-02-20 03:32:00,
2013-02-19 22:42:00,13.0,8.0,29.69,WNW,295,11.0,26.0,82,-99.99,,,-99.99,,2013-02-20 03:42:00,
2013-02-19 22:52:00,12.0,8.0,29.71,WNW,285,8.0,18.0,81,-99.99,,,-99.99,,2013-02-20 03:52:00,
2013-02-19 23:02:00,12.0,7.0,29.71,WNW,300,8.0,16.0,80,-99.99,,,-99.99,,2013-02-20 04:02:00,
2013-02-19 23:11:00,12.0,7.0,29.71,WNW,300,8.0,16.0,80,-99.99,,,-99.99,,2013-02-20 04:11:00,
2013-02-19 23:21:00,12.0,7.0,29.72,WNW,285,10.0,18.0,81,-99.99,,,-99.99,,2013-02-20 04:21:00,
2013-02-19 23:32:00,12.0,7.0,29.73,West,280,14.0,19.0,80,-99.99,,,-99.99,,2013-02-20 04:32:00,
2013-02-19 23:42:00,12.0,7.0,29.73,West,280,14.0,19.0,80,-99.99,,,-99.99,,2013-02-20 04:42:00,
2013-02-19 23:52:00,12.0,7.0,29.73,WNW,290,11.0,20.0,80,-99.99,,,-99.99,,2013-02-20 04:52:00,